Flag for United Kingdom Weather past 2 weeks in Perth, Scotland, United Kingdom

Now
47 °F

Cool.


Feels Like: 41 °F
Forecast: 37 / 44 °F
Wind: 17 mph from Southwest

Location: Strathallan

Current Time: Jan 27, 2015 at 1:22:29 PM

Latest Report: Jan 27, 2015 at 12:00 PM


Visibility: 19 mi

Pressure: 30.10 "Hg

Humidity: 79%

Dew point: 41 °F

Location of PerthLocation

Historic Weather in Perth — Graph

°F

Perth temperature yesterday

Maximum temperature yesterday: 44 °F (at 2:00 AM)
Minimum temperature yesterday: 38 °F (at 9:00 AM)
Average temperature yesterday: 41 °F

Past Weeks' High & Low Weather Summary

 TemperatureHumidityPressure
High49 °F (Jan 25, 7:00 PM)100% (Jan 13, 11:00 PM)30.26 "Hg (Jan 13, 11:00 PM)
Low21 °F (Jan 19, 9:00 AM)53% (Jan 18, 12:00 PM)28.35 "Hg (Jan 15, 2:00 PM)
Average36 °F86%29.69 "Hg
* Reported Jan 12 12:00 Noon — Jan 27 12:00 Noon, Perth, Weather by CustomWeather, © 2014

Note: Actual official high and low records may vary slightly from our data, if they occured in-between our weather recording intervals... More about our weather records

Advertising

Perth weather history for previous 24 hours

 ConditionsComfort  
Time TempWeatherWind HumidityBarometerVisibility
12:00 PM
Jan 27
47 °FCool.17 mph79%30.10 "Hg19 mi
11:00 AM46 °FCool.13 mph83%30.13 "Hg31 mi
10:00 AM45 °FQuite cool.13 mph88%30.14 "Hg19 mi
9:00 AM43 °FQuite cool.13 mph92%30.15 "Hg31 mi
8:00 AM43 °FQuite cool.13 mph93%30.16 "Hg28 mi
7:00 AM42 °FQuite cool.7 mph94%30.17 "Hg25 mi
6:00 AM42 °FQuite cool.14 mph90%30.17 "Hg31 mi
5:00 AM42 °FQuite cool.14 mph92%30.19 "Hg28 mi
4:00 AM42 °FQuite cool.14 mph87%30.19 "Hg25 mi
3:00 AM43 °FQuite cool.17 mph83%30.20 "Hg31 mi
2:00 AM41 °FQuite cool.10 mph81%30.21 "Hg16 mi
1:00 AM42 °FQuite cool.10 mph80%30.22 "Hg16 mi
12:00 AM41 °FQuite cool.5 mph78%30.22 "Hg17 mi
11:00 PM
Jan 26
40 °FQuite cool.6 mph76%30.22 "Hg15 mi
10:00 PM41 °FQuite cool.13 mph75%30.21 "Hg22 mi
8:00 PM41 °FQuite cool.10 mph74%30.21 "Hg25 mi
7:00 PM41 °FQuite cool.9 mph78%30.19 "Hg22 mi
6:00 PM42 °FQuite cool.15 mph70%30.16 "Hg25 mi
5:00 PM42 °FQuite cool.15 mph69%30.16 "Hg18 mi
4:00 PM42 °FQuite cool.8 mph65%30.13 "Hg22 mi
2:00 PM42 °FQuite cool.15 mph72%30.11 "Hg22 mi
1:00 PM43 °FQuite cool.14 mph63%30.09 "Hg25 mi
Weather by CustomWeather, © 2014

See weather overviewHow to use our weather pages